| time (UTC) | temp F | wind direction | speed knots | gust knots | rain 1hr in | rain 24hr in | rain mn in | humidity % | barometer mb |
| 20260505225555 | 59 | 0.0 | 0.0 | 0.00 | 0.00 | 0.00 | 66 | 1197.3 | |
| 20260505224904 | 59 | 0.0 | 0.0 | 0.00 | 0.00 | 0.00 | 66 | 1197.3 | |
| 20260505224404 | 59 | 0.0 | 0.0 | 0.00 | 0.00 | 0.00 | 66 | 1197.3 | |
| 20260505223903 | 59 | 0.0 | 0.0 | 0.00 | 0.00 | 0.00 | 65 | 1196.3 | |
| 20260505223404 | 59 | 0.0 | 0.0 | 0.00 | 0.00 | 0.00 | 65 | 1196.3 | |
| 20260505222712 | 59 | 0.0 | 0.0 | 0.00 | 0.00 | 0.00 | 65 | 1197.3 | |
| 20260505222213 | 59 | 0.0 | 0.0 | 0.00 | 0.00 | 0.00 | 65 | 1197.3 | |
| 20260505221712 | 59 | 0.0 | 0.0 | 0.00 | 0.00 | 0.00 | 65 | 1197.3 | |
| 20260505221212 | 60 | 0.0 | 0.0 | 0.00 | 0.00 | 0.00 | 65 | 1196.3 | |
| 20260505220712 | 60 | 0 | 0.0 | 3.5 | 0.00 | 0.00 | 0.00 | 65 | 1196.3 |
| 20260505220021 | 60 | 112 | 3.5 | 3.5 | 0.00 | 0.00 | 0.00 | 64 | 1196.3 |
| 20260505215521 | 59 | 112 | 3.5 | 3.5 | 0.00 | 0.00 | 0.00 | 64 | 1195.3 |
| 20260505215021 | 60 | 112 | 2.6 | 3.5 | 0.00 | 0.00 | 0.00 | 64 | 1195.3 |
| 20260505214521 | 60 | 112 | 2.6 | 3.5 | 0.00 | 0.00 | 0.00 | 64 | 1195.3 |
| 20260505214021 | 59 | 112 | 3.5 | 3.5 | 0.00 | 0.00 | 0.00 | 63 | 1200.3 |
| 20260505213521 | 60 | 135 | 2.6 | 3.5 | 0.00 | 0.00 | 0.00 | 63 | 1200.3 |
| 20260505212830 | 59 | 124 | 2.6 | 3.5 | 0.00 | 0.00 | 0.00 | 63 | 1200.3 |
| 20260505212330 | 59 | 112 | 2.6 | 2.6 | 0.00 | 0.00 | 0.00 | 62 | 1201.4 |
| 20260505211830 | 59 | 112 | 2.6 | 3.5 | 0.00 | 0.00 | 0.00 | 62 | 1201.4 |
| 20260505211138 | 59 | 112 | 2.6 | 5.2 | 0.00 | 0.00 | 0.00 | 62 | 1201.4 |
| 20260505210639 | 59 | 90 | 5.2 | 5.2 | 0.00 | 0.00 | 0.00 | 62 | 1201.4 |
| 20260505210139 | 60 | 90 | 5.2 | 5.2 | 0.00 | 0.00 | 0.00 | 61 | 1201.4 |
| 20260505205638 | 60 | 90 | 5.2 | 5.2 | 0.00 | 0.00 | 0.00 | 61 | 1201.4 |
| 20260505205139 | 60 | 90 | 2.6 | 2.6 | 0.00 | 0.00 | 0.00 | 61 | 1201.4 |
| 20260505204638 | 60 | 101 | 2.6 | 2.6 | 0.00 | 0.00 | 0.00 | 61 | 1201.4 |
| 20260505203947 | 60 | 112 | 2.6 | 2.6 | 0.00 | 0.00 | 0.00 | 60 | 1202.4 |
| 20260505203448 | 60 | 0.0 | 0.0 | 0.00 | 0.00 | 0.00 | 60 | 1202.4 | |
| 20260505202947 | 60 | 0.0 | 0.0 | 0.00 | 0.00 | 0.00 | 60 | 1202.4 | |
| 20260505202447 | 60 | 0.0 | 0.0 | 0.00 | 0.00 | 0.00 | 60 | 1201.4 | |
| 20260505201756 | 60 | 0.0 | 0.0 | 0.00 | 0.00 | 0.00 | 59 | 1201.4 | |
| 20260505201256 | 60 | 0.0 | 0.0 | 0.00 | 0.00 | 0.00 | 59 | 1202.4 | |
| 20260505200756 | 60 | 0.0 | 0.0 | 0.00 | 0.00 | 0.00 | 59 | 1202.4 | |
| 20260505200256 | 60 | 0.0 | 0.0 | 0.00 | 0.00 | 0.00 | 59 | 1202.4 | |
| 20260505195756 | 60 | 0.0 | 0.0 | 0.00 | 0.00 | 0.00 | 58 | 1204.4 | |
| 20260505195256 | 60 | 0.0 | 0.0 | 0.00 | 0.00 | 0.00 | 58 | 1204.4 | |
| 20260505194604 | 60 | 0.0 | 0.0 | 0.00 | 0.00 | 0.00 | 58 | 1204.4 | |
| 20260505194105 | 60 | 0.0 | 0.0 | 0.00 | 0.00 | 0.00 | 58 | 1204.4 | |
| 20260505193605 | 60 | 0.0 | 0.0 | 0.00 | 0.00 | 0.00 | 58 | 1204.4 | |
| 20260505193104 | 60 | 0.0 | 0.0 | 0.00 | 0.00 | 0.00 | 58 | 1204.4 | |
| 20260505192604 | 61 | 0.0 | 0.0 | 0.00 | 0.00 | 0.00 | 58 | 1205.4 | |
| 20260505192104 | 61 | 0.0 | 0.0 | 0.00 | 0.00 | 0.00 | 57 | 1205.4 | |
| 20260505191604 | 61 | 0.0 | 0.0 | 0.00 | 0.00 | 0.00 | 57 | 1205.4 | |
| 20260505190913 | 61 | 0.0 | 0.0 | 0.00 | 0.00 | 0.00 | 57 | 1206.4 | |
| 20260505190413 | 61 | 0.0 | 0.0 | 0.00 | 0.00 | 0.00 | 57 | 1206.4 | |
| 20260505185913 | 61 | 0.0 | 0.0 | 0.00 | 0.00 | 0.00 | 57 | 1206.4 | |
| 20260505185413 | 61 | 0.0 | 0.0 | 0.00 | 0.00 | 0.00 | 56 | 1207.4 | |
| 20260505184913 | 61 | 180 | 1.7 | 1.7 | 0.00 | 0.00 | 0.00 | 56 | 1207.4 |
| 20260505184222 | 61 | 180 | 1.7 | 1.7 | 0.00 | 0.00 | 0.00 | 56 | 1206.4 |
| 20260505183722 | 61 | 180 | 1.7 | 3.5 | 0.00 | 0.00 | 0.00 | 56 | 1206.4 |
| 20260505183030 | 61 | 135 | 3.5 | 3.5 | 0.00 | 0.00 | 0.00 | 55 | 1206.4 |
| 20260505182530 | 61 | 135 | 3.5 | 3.5 | 0.00 | 0.00 | 0.00 | 55 | 1207.4 |
| 20260505182031 | 61 | 135 | 3.5 | 3.5 | 0.00 | 0.00 | 0.00 | 55 | 1207.4 |
| 20260505181530 | 61 | 0.0 | 0.0 | 0.00 | 0.00 | 0.00 | 55 | 1207.4 | |
| 20260505181030 | 61 | 112 | 3.5 | 3.5 | 0.00 | 0.00 | 0.00 | 55 | 1208.4 |
| 20260505180530 | 61 | 112 | 3.5 | 3.5 | 0.00 | 0.00 | 0.00 | 55 | 1208.4 |
| 20260505175839 | 61 | 128 | 3.5 | 3.5 | 0.00 | 0.00 | 0.00 | 54 | 1208.4 |
| 20260505175339 | 61 | 112 | 0.9 | 0.9 | 0.00 | 0.00 | 0.00 | 54 | 1208.4 |
| 20260505174839 | 61 | 112 | 0.9 | 4.3 | 0.00 | 0.00 | 0.00 | 54 | 1208.4 |
| 20260505174339 | 61 | 101 | 2.6 | 4.3 | 0.00 | 0.00 | 0.00 | 54 | 1208.4 |
| 20260505173839 | 61 | 90 | 1.7 | 1.7 | 0.00 | 0.00 | 0.00 | 54 | 1208.4 |
| 20260505173339 | 61 | 112 | 1.7 | 2.6 | 0.00 | 0.00 | 0.00 | 54 | 1208.4 |
| 20260505172839 | 61 | 112 | 1.7 | 2.6 | 0.00 | 0.00 | 0.00 | 54 | 1208.4 |
| 20260505172148 | 61 | 79 | 2.6 | 2.6 | 0.00 | 0.00 | 0.00 | 54 | 1207.4 |
| 20260505171648 | 61 | 112 | 2.6 | 2.6 | 0.00 | 0.00 | 0.00 | 54 | 1207.4 |
| 20260505171148 | 61 | 124 | 1.7 | 1.7 | 0.00 | 0.00 | 0.00 | 54 | 1207.4 |
| 20260505170648 | 62 | 158 | 1.7 | 2.6 | 0.00 | 0.00 | 0.00 | 54 | 1207.4 |
| 20260505165956 | 62 | 68 | 1.7 | 2.6 | 0.00 | 0.00 | 0.00 | 54 | 1207.4 |
| 20260505165456 | 62 | 112 | 0.9 | 2.6 | 0.00 | 0.00 | 0.00 | 54 | 1207.4 |
| 20260505164805 | 62 | 82 | 1.7 | 2.6 | 0.00 | 0.00 | 0.00 | 54 | 1207.4 |
| 20260505164305 | 62 | 101 | 1.7 | 2.6 | 0.00 | 0.00 | 0.00 | 54 | 1207.4 |
| 20260505163805 | 62 | 90 | 1.7 | 2.6 | 0.00 | 0.00 | 0.00 | 54 | 1206.4 |
| 20260505163305 | 62 | 75 | 1.7 | 2.6 | 0.00 | 0.00 | 0.00 | 54 | 1206.4 |
| 20260505162805 | 62 | 45 | 2.6 | 2.6 | 0.00 | 0.00 | 0.00 | 54 | 1206.4 |
| 20260505162114 | 62 | 112 | 0.9 | 0.9 | 0.00 | 0.00 | 0.00 | 54 | 1204.4 |
| 20260505161614 | 62 | 112 | 0.9 | 3.5 | 0.00 | 0.00 | 0.00 | 54 | 1204.4 |
| 20260505161114 | 62 | 112 | 3.5 | 3.5 | 0.00 | 0.00 | 0.00 | 54 | 1205.4 |
| 20260505160614 | 62 | 180 | 3.5 | 3.5 | 0.00 | 0.00 | 0.00 | 55 | 1205.4 |
| 20260505160114 | 62 | 22 | 1.7 | 1.7 | 0.00 | 0.00 | 0.00 | 55 | 1205.4 |
| 20260505153231 | 63 | 101 | 0.0 | 1.7 | 0.00 | 0.00 | 0.00 | 55 | 1204.4 |
| 20260505152731 | 63 | 128 | 0.9 | 1.7 | 0.00 | 0.00 | 0.00 | 55 | 1203.4 |
| 20260505152231 | 63 | 112 | 1.7 | 1.7 | 0.00 | 0.00 | 0.00 | 55 | 1203.4 |
| 20260505151730 | 63 | 135 | 1.7 | 1.7 | 0.00 | 0.00 | 0.00 | 55 | 1203.4 |
| 20260505151230 | 64 | 90 | 1.7 | 2.6 | 0.00 | 0.00 | 0.00 | 55 | 1204.4 |
| 20260505150539 | 64 | 90 | 2.6 | 2.6 | 0.00 | 0.00 | 0.00 | 55 | 1204.4 |
| 20260505140348 | 65 | 112 | 2.6 | 2.6 | 0.00 | 0.00 | 0.00 | 53 | 1205.4 |
| 20260505124814 | 66 | 158 | 1.7 | 1.7 | 0.00 | 0.00 | 0.00 | 51 | 1210.4 |
| 20260505124314 | 66 | 158 | 1.7 | 1.7 | 0.00 | 0.00 | 0.00 | 50 | 1210.4 |
| 20260505123623 | 66 | 150 | 0.9 | 2.6 | 0.00 | 0.00 | 0.00 | 50 | 1210.4 |
| 20260505123123 | 66 | 158 | 0.9 | 2.6 | 0.00 | 0.00 | 0.00 | 50 | 1210.4 |
| 20260505122623 | 67 | 158 | 0.9 | 2.6 | 0.00 | 0.00 | 0.00 | 50 | 1209.4 |
| 20260505122123 | 67 | 135 | 2.6 | 2.6 | 0.00 | 0.00 | 0.00 | 50 | 1209.4 |
| 20260505121623 | 67 | 158 | 1.7 | 4.3 | 0.00 | 0.00 | 0.00 | 50 | 1209.4 |
| 20260505120932 | 67 | 172 | 3.5 | 4.3 | 0.00 | 0.00 | 0.00 | 51 | 1207.4 |
| 20260505120432 | 67 | 146 | 1.7 | 4.3 | 0.00 | 0.00 | 0.00 | 51 | 1207.4 |
| 20260505115931 | 67 | 158 | 0.9 | 4.3 | 0.00 | 0.00 | 0.00 | 52 | 1207.4 |
| 20260505115240 | 67 | 158 | 2.6 | 5.2 | 0.00 | 0.00 | 0.00 | 52 | 1207.4 |
| 20260505114741 | 67 | 135 | 3.5 | 5.2 | 0.00 | 0.00 | 0.00 | 52 | 1207.4 |
| 20260505114241 | 67 | 152 | 2.6 | 3.5 | 0.00 | 0.00 | 0.00 | 53 | 1208.4 |
| 20260505113741 | 68 | 98 | 2.6 | 3.5 | 0.00 | 0.00 | 0.00 | 53 | 1208.4 |
| 20260505113241 | 68 | 158 | 1.7 | 3.5 | 0.00 | 0.00 | 0.00 | 53 | 1208.4 |
| 20260505112549 | 68 | 158 | 3.5 | 3.5 | 0.00 | 0.00 | 0.00 | 53 | 1209.4 |
| 20260505112049 | 68 | 158 | 3.5 | 3.5 | 0.00 | 0.00 | 0.00 | 52 | 1209.4 |
| 20260505111549 | 68 | 158 | 2.6 | 4.3 | 0.00 | 0.00 | 0.00 | 52 | 1209.4 |
| 20260505111049 | 68 | 158 | 3.5 | 4.3 | 0.00 | 0.00 | 0.00 | 52 | 1210.4 |
| 20260505110549 | 68 | 172 | 2.6 | 5.2 | 0.00 | 0.00 | 0.00 | 51 | 1210.4 |
| 20260505102207 | 69 | 165 | 1.7 | 3.5 | 0.00 | 0.00 | 0.00 | 47 | 1214.5 |
| 20260505101707 | 69 | 195 | 2.6 | 3.5 | 0.00 | 0.00 | 0.00 | 46 | 1214.5 |
| 20260505101207 | 69 | 165 | 3.5 | 3.5 | 0.00 | 0.00 | 0.00 | 46 | 1215.5 |
| 20260505100707 | 70 | 202 | 2.6 | 3.5 | 0.00 | 0.00 | 0.00 | 45 | 1215.5 |
| 20260505100207 | 70 | 202 | 2.6 | 3.5 | 0.00 | 0.00 | 0.00 | 45 | 1215.5 |
| 20260505095515 | 70 | 158 | 3.5 | 3.5 | 0.00 | 0.00 | 0.00 | 45 | 1216.5 |
| 20260505095015 | 70 | 172 | 2.6 | 3.5 | 0.00 | 0.00 | 0.00 | 44 | 1216.5 |
| 20260505094515 | 71 | 202 | 2.6 | 5.2 | 0.00 | 0.00 | 0.00 | 44 | 1216.5 |
| 20260505094015 | 71 | 202 | 3.5 | 5.2 | 0.00 | 0.00 | 0.00 | 44 | 1217.5 |
| 20260505093515 | 71 | 165 | 2.6 | 3.5 | 0.00 | 0.00 | 0.00 | 43 | 1217.5 |
| 20260505092824 | 71 | 135 | 3.5 | 3.5 | 0.00 | 0.00 | 0.00 | 43 | 1217.5 |
| 20260505092324 | 72 | 158 | 3.5 | 3.5 | 0.00 | 0.00 | 0.00 | 42 | 1217.5 |
| 20260505091633 | 72 | 202 | 2.6 | 5.2 | 0.00 | 0.00 | 0.00 | 41 | 1217.5 |
| 20260505091133 | 72 | 225 | 5.2 | 5.2 | 0.00 | 0.00 | 0.00 | 40 | 1218.5 |
| 20260505090633 | 72 | 202 | 4.3 | 6.1 | 0.00 | 0.00 | 0.00 | 40 | 1218.5 |
| 20260505090133 | 73 | 202 | 4.3 | 6.1 | 0.00 | 0.00 | 0.00 | 39 | 1218.5 |
| 20260505085633 | 73 | 158 | 5.2 | 5.2 | 0.00 | 0.00 | 0.00 | 38 | 1219.5 |
| 20260505085133 | 73 | 202 | 5.2 | 6.1 | 0.00 | 0.00 | 0.00 | 38 | 1219.5 |
| 20260505084633 | 73 | 202 | 5.2 | 6.1 | 0.00 | 0.00 | 0.00 | 37 | 1219.5 |
| 20260505084133 | 74 | 158 | 6.1 | 9.6 | 0.00 | 0.00 | 0.00 | 35 | 1219.5 |
| 20260505083633 | 74 | 158 | 9.6 | 9.6 | 0.00 | 0.00 | 0.00 | 35 | 1219.5 |
| 20260505083133 | 74 | 158 | 5.2 | 5.2 | 0.00 | 0.00 | 0.00 | 34 | 1219.5 |
| 20260505082441 | 75 | 202 | 5.2 | 5.2 | 0.00 | 0.00 | 0.00 | 34 | 1219.5 |
| 20260505081956 | 76 | 202 | 3.5 | 3.5 | 0.00 | 0.00 | 0.00 | 34 | 1219.5 |
| 20260505081251 | 76 | 270 | 3.5 | 5.2 | 0.00 | 0.00 | 0.00 | 33 | 1219.5 |
| 20260505080559 | 77 | 188 | 4.3 | 7.0 | 0.00 | 0.00 | 0.00 | 32 | 1219.5 |
| 20260505080059 | 78 | 202 | 7.0 | 7.0 | 0.00 | 0.00 | 0.00 | 31 | 1219.5 |
| 20260505075559 | 78 | 218 | 4.3 | 5.2 | 0.00 | 0.00 | 0.00 | 31 | 1219.5 |
| 20260505075059 | 79 | 232 | 5.2 | 5.2 | 0.00 | 0.00 | 0.00 | 30 | 1219.5 |
| 20260505074559 | 79 | 225 | 3.5 | 6.1 | 0.00 | 0.00 | 0.00 | 30 | 1219.5 |
| 20260505073908 | 80 | 191 | 4.3 | 6.1 | 0.00 | 0.00 | 0.00 | 28 | 1220.5 |
| 20260505073408 | 81 | 225 | 6.1 | 6.1 | 0.00 | 0.00 | 0.00 | 24 | 1220.5 |
| 20260505072908 | 82 | 248 | 2.6 | 2.6 | 0.00 | 0.00 | 0.00 | 23 | 1220.5 |
| 20260505072408 | 84 | 0.0 | 0.0 | 0.00 | 0.00 | 0.00 | 21 | 1220.5 | |
| 20260505071908 | 85 | 0.0 | 0.0 | 0.00 | 0.00 | 0.00 | 20 | 1220.5 | |
| 20260505071217 | 87 | 158 | 5.2 | 5.2 | 0.00 | 0.00 | 0.00 | 19 | 1220.5 |
| 20260505070717 | 88 | 158 | 5.2 | 5.2 | 0.00 | 0.00 | 0.00 | 19 | 1220.5 |
| 20260505070217 | 89 | 180 | 3.5 | 5.2 | 0.00 | 0.00 | 0.00 | 18 | 1220.5 |
| 20260505065717 | 84 | 180 | 3.5 | 4.3 | 0.00 | 0.00 | 0.00 | 19 | 1220.5 |
| 20260505065216 | 85 | 248 | 3.5 | 5.2 | 0.00 | 0.00 | 0.00 | 6 | 1220.5 |
| 20260505064525 | 88 | 248 | 3.5 | 5.2 | 0.00 | 0.00 | 0.00 | 2 | 1220.5 |
| 20260505064025 | 97 | 202 | 3.5 | 4.3 | 0.00 | 0.00 | 0.00 | 2 | 1220.5 |
| 20260505063525 | 110 | 188 | 0.9 | 3.5 | 0.00 | 0.00 | 0.00 | 2 | 1220.5 |
| 20260505062834 | 107 | 202 | 2.6 | 3.5 | 0.00 | 0.00 | 0.00 | 2 | 1220.5 |
| 20260505062334 | 105 | 188 | 1.7 | 5.2 | 0.00 | 0.00 | 0.00 | 2 | 1220.5 |
| 20260505061834 | 102 | 112 | 0.9 | 5.2 | 0.00 | 0.00 | 0.00 | 2 | 1220.5 |
| 20260505061334 | 104 | 158 | 4.3 | 5.2 | 0.00 | 0.00 | 0.00 | 2 | 1220.5 |
| 20260505060643 | 101 | 146 | 4.3 | 5.2 | 0.00 | 0.00 | 0.00 | 2 | 1220.5 |
| 20260505060143 | 94 | 112 | 1.7 | 2.6 | 0.00 | 0.00 | 0.00 | 11 | 1220.5 |
| 20260505055643 | 84 | 225 | 1.7 | 1.7 | 0.00 | 0.00 | 0.00 | 26 | 1217.5 |
| 20260505055143 | 79 | 39 | 1.7 | 3.5 | 0.00 | 0.00 | 0.00 | 28 | 1217.5 |
| 20260505054643 | 79 | 292 | 0.9 | 3.5 | 0.00 | 0.00 | 0.00 | 28 | 1217.5 |
| 20260505054143 | 78 | 292 | 2.6 | 3.5 | 0.00 | 0.00 | 0.00 | 31 | 1218.5 |
| 20260505053643 | 78 | 158 | 1.7 | 2.6 | 0.00 | 0.00 | 0.00 | 32 | 1218.5 |
| 20260505053143 | 78 | 202 | 2.6 | 3.5 | 0.00 | 0.00 | 0.00 | 33 | 1218.5 |
| 20260505052452 | 77 | 158 | 3.5 | 3.5 | 0.00 | 0.00 | 0.00 | 33 | 1217.5 |
| 20260505051951 | 76 | 202 | 1.7 | 2.6 | 0.00 | 0.00 | 0.00 | 33 | 1217.5 |
| 20260505051300 | 76 | 315 | 2.6 | 3.5 | 0.00 | 0.00 | 0.00 | 34 | 1217.5 |
| 20260505050800 | 76 | 188 | 2.6 | 3.5 | 0.00 | 0.00 | 0.00 | 35 | 1216.5 |
| 20260505050300 | 76 | 112 | 1.7 | 1.7 | 0.00 | 0.00 | 0.00 | 36 | 1216.5 |
| 20260505041609 | 73 | 0 | 2.6 | 4.3 | 0.00 | 0.00 | 0.00 | 40 | 1214.5 |
| 20260505040917 | 73 | 0 | 3.5 | 4.3 | 0.00 | 0.00 | 0.00 | 41 | 1212.5 |
| 20260505040418 | 72 | 338 | 0.9 | 3.5 | 0.00 | 0.00 | 0.00 | 42 | 1212.5 |
| 20260505035918 | 72 | 338 | 0.9 | 3.5 | 0.00 | 0.00 | 0.00 | 42 | 1212.5 |
| 20260505035418 | 72 | 338 | 3.5 | 3.5 | 0.00 | 0.00 | 0.00 | 43 | 1209.4 |
| 20260505034917 | 72 | 68 | 2.6 | 2.6 | 0.00 | 0.00 | 0.00 | 43 | 1209.4 |
| 20260505034226 | 71 | 0.0 | 0.0 | 0.00 | 0.00 | 0.00 | 44 | 1205.4 | |
| 20260505033726 | 71 | 0.0 | 0.0 | 0.00 | 0.00 | 0.00 | 44 | 1205.4 | |
| 20260505033035 | 71 | 0.0 | 0.0 | 0.00 | 0.00 | 0.00 | 45 | 1205.4 | |
| 20260505032535 | 70 | 0.0 | 0.0 | 0.00 | 0.00 | 0.00 | 45 | 1204.4 | |
| 20260505032035 | 70 | 0.0 | 0.0 | 0.00 | 0.00 | 0.00 | 46 | 1204.4 | |
| 20260505031535 | 70 | 0.0 | 0.0 | 0.00 | 0.00 | 0.00 | 46 | 1204.4 | |
| 20260505031035 | 69 | 0.0 | 0.0 | 0.00 | 0.00 | 0.00 | 46 | 1201.4 | |
| 20260505030535 | 69 | 0.0 | 0.0 | 0.00 | 0.00 | 0.00 | 47 | 1201.4 | |
| 20260505025844 | 69 | 0.0 | 0.0 | 0.00 | 0.00 | 0.00 | 48 | 1201.4 | |
| 20260505025344 | 69 | 0.0 | 0.0 | 0.00 | 0.00 | 0.00 | 49 | 1198.3 | |
| 20260505024844 | 68 | 0.0 | 0.0 | 0.00 | 0.00 | 0.00 | 49 | 1198.3 | |
| 20260505024344 | 68 | 0.0 | 0.0 | 0.00 | 0.00 | 0.00 | 50 | 1198.3 | |
| 20260505023844 | 68 | 0.0 | 0.0 | 0.00 | 0.00 | 0.00 | 51 | 1198.3 | |
| 20260505023344 | 68 | 0.0 | 0.0 | 0.00 | 0.00 | 0.00 | 52 | 1198.3 | |
| 20260505022652 | 67 | 0.0 | 0.0 | 0.00 | 0.00 | 0.00 | 53 | 1194.3 | |
| 20260505022152 | 67 | 0.0 | 0.0 | 0.00 | 0.00 | 0.00 | 54 | 1194.3 | |
| 20260505021653 | 67 | 0.0 | 0.0 | 0.00 | 0.00 | 0.00 | 54 | 1194.3 | |
| 20260505021152 | 67 | 0.0 | 0.0 | 0.00 | 0.00 | 0.00 | 55 | 1193.3 | |
| 20260505020652 | 66 | 0.0 | 0.0 | 0.00 | 0.00 | 0.00 | 56 | 1193.3 | |
| 20260505020152 | 66 | 0.0 | 0.0 | 0.00 | 0.00 | 0.00 | 58 | 1193.3 | |
| 20260505015653 | 66 | 0.0 | 0.0 | 0.00 | 0.00 | 0.00 | 60 | 1186.2 | |
| 20260505015002 | 65 | 0.0 | 0.0 | 0.00 | 0.00 | 0.00 | 61 | 1186.2 | |
| 20260505014501 | 65 | 0.0 | 0.0 | 0.00 | 0.00 | 0.00 | 61 | 1186.2 | |
| 20260505014001 | 65 | 0.0 | 0.0 | 0.00 | 0.00 | 0.00 | 62 | 1183.2 | |
| 20260505013502 | 64 | 0.0 | 0.0 | 0.00 | 0.00 | 0.00 | 63 | 1183.2 | |
| 20260505013002 | 64 | 0.0 | 0.0 | 0.00 | 0.00 | 0.00 | 64 | 1183.2 | |
| 20260505012310 | 64 | 0.0 | 0.0 | 0.00 | 0.00 | 0.00 | 65 | 1182.2 | |
| 20260505011810 | 64 | 0.0 | 0.0 | 0.00 | 0.00 | 0.00 | 66 | 1182.2 | |
| 20260505011119 | 64 | 0.0 | 0.0 | 0.00 | 0.00 | 0.00 | 66 | 1179.1 | |
| 20260505010619 | 63 | 0.0 | 0.0 | 0.00 | 0.00 | 0.00 | 67 | 1179.1 | |
| 20260505010119 | 63 | 0.0 | 0.0 | 0.00 | 0.00 | 0.00 | 67 | 1179.1 | |
| 20260505005619 | 63 | 0.0 | 0.0 | 0.00 | 0.00 | 0.00 | 67 | 1177.1 | |
| 20260505005119 | 63 | 0.0 | 0.0 | 0.00 | 0.00 | 0.00 | 68 | 1177.1 | |
| 20260505004618 | 62 | 0.0 | 0.0 | 0.00 | 0.00 | 0.00 | 68 | 1177.1 | |
| 20260505003927 | 62 | 0.0 | 0.0 | 0.00 | 0.00 | 0.00 | 68 | 1177.1 | |
| 20260505003428 | 62 | 0.0 | 0.0 | 0.00 | 0.00 | 0.00 | 68 | 1177.1 | |
| 20260505002927 | 61 | 0.0 | 0.0 | 0.00 | 0.00 | 0.00 | 69 | 1177.1 | |
| 20260505002236 | 61 | 0.0 | 0.0 | 0.00 | 0.00 | 0.00 | 69 | 1182.2 | |
| 20260505001736 | 61 | 0.0 | 0.0 | 0.00 | 0.00 | 0.00 | 69 | 1182.2 | |
| 20260505001236 | 60 | 0.0 | 0.0 | 0.00 | 0.00 | 0.00 | 69 | 1178.1 | |
| 20260505000736 | 60 | 0.0 | 0.0 | 0.00 | 0.00 | 0.00 | 69 | 1178.1 | |
| 20260505000236 | 60 | 0.0 | 0.0 | 0.00 | 0.00 | 0.00 | 69 | 1178.1 | |
| 20260504235545 | 60 | 0.0 | 0.0 | 0.00 | 0.00 | 0.00 | 69 | 1185.2 | |
| 20260504235045 | 60 | 0.0 | 0.0 | 0.00 | 0.00 | 0.00 | 69 | 1185.2 | |
| 20260504234545 | 60 | 90 | 2.6 | 2.6 | 0.00 | 0.00 | 0.00 | 69 | 1185.2 |
| 20260504234045 | 60 | 90 | 2.6 | 2.6 | 0.00 | 0.00 | 0.00 | 69 | 1189.2 |
| 20260504233545 | 60 | 90 | 2.6 | 2.6 | 0.00 | 0.00 | 0.00 | 69 | 1189.2 |
| 20260504233045 | 59 | 0.0 | 0.0 | 0.00 | 0.00 | 0.00 | 69 | 1189.2 | |
| 20260504232353 | 59 | 112 | 3.5 | 3.5 | 0.00 | 0.00 | 0.00 | 69 | 1187.2 |
| 20260504231854 | 59 | 112 | 3.5 | 3.5 | 0.00 | 0.00 | 0.00 | 69 | 1187.2 |
| 20260504231353 | 59 | 112 | 3.5 | 3.5 | 0.00 | 0.00 | 0.00 | 68 | 1187.2 |
| 20260504230854 | 59 | 124 | 3.5 | 3.5 | 0.00 | 0.00 | 0.00 | 68 | 1187.2 |
| 20260504230354 | 59 | 120 | 2.6 | 4.3 | 0.00 | 0.00 | 0.00 | 68 | 1187.2 |